Temp
-5 -5 -5 -5 -6 -6 -6 -6 -6 -6 -6 -7 -7 -7 -7 -7 -7 -7 -7 -7 -7 -7 -7 -7 -7 -7 -7 -8 -8 -8 -8 -8 -8 -8 -8 -7 -7 -7 -7 -7 -7 -7
-5 -5 -5 -5 -6 -6 -6 -6 -6 -6 -6 -6 -7 -7 -7 -7 -7 -7 -7 -7 -8 -8 -7 -8 -8 -8 -7 -8 -8 -8 -8 -8 -8 -8 -7 -7 -7 -8 -8 -8 -7 -7
-5 -5 -5 -5 -6 -6 -6 -6 -6 -6 -6 -6 -7 -7 -7 -7 -8 -8 -8 -8 -8 -8 -8 -8 -8 -8 -8 -8 -8 -8 -8 -8 -8 -8 -7 -7 -8 -8 -8 -8 -8 -8
-6 -6 -6 -6 -6 -6 -6 -6 -6 -6 -6 -6 -7 -7 -7 -7 -8 -8 -8 -8 -8 -8 -8 -8 -8 -8 -8 -8 -8 -8 -8 -8 -8 -8 -8 -8 -8 -8 -8 -8 -8 -8
-6 -6 -6 -6 -6 -6 -6 -6 -6 -6 -6 -7 -7 -7 -7 -7 -8 -8 -8 -8 -8 -8 -8 -8 -8 -8 -8 -8 -8 -8 -8 -8 -8 -8 -8 -8 -8 -8 -8 -8 -8 -8
-6 -6 -6 -6 -6 -6 -6 -6 -6 -6 -7 -7 -7 -7 -7 -7 -8 -8 -8 -8 -8 -8 -8 -8 -8 -8 -8 -8 -8 -8 -8 -8 -8 -8 -8 -8 -8 -8 -8 -8 -8 -8
-6 -6 -6 -7 -6 -6 -6 -6 -6 -7 -7 -7 -7 -7 -7 -8 -8 -8 -8 -8 -8 -8 -8 -8 -8 -8 -8 -8 -8 -8 -8 -8 -8 -8 -8 -8 -8 -8 -8 -8 -8 -8
-6 -7 -7 -7 -7 -7 -7 -7 -7 -7 -7 -7 -7 -8 -8 -8 -8 -8 -8 -8 -8 -8 -8 -8 -8 -8 -8 -8 -8 -8 -8 -8 -8 -8 -8 -8 -8 -8 -8 -8 -8 -8
-6 -6 -7 -7 -7 -7 -7 -7 -7 -7 -7 -7 -8 -8 -8 -8 -8 -8 -8 -8 -8 -8 -8 -8 -8 -8 -8 -8 -8 -8 -8 -8 -8 -8 -8 -8 -8 -8 -8 -8 -8 -8
-6 -6 -7 -7 -7 -7 -7 -7 -8 -8 -8 -8 -8 -8 -8 -8 -8 -8 -9 -8 -8 -8 -8 -8 -8 -8 -8 -8 -8 -8 -8 -8 -8 -8 -8 -8 -8 -8 -8 -8 -8 -8
-6 -6 -7 -7 -7 -7 -7 -8 -8 -8 -8 -8 -8 -8 -8 -8 -9 -9 -9 -8 -8 -8 -8 -8 -8 -8 -8 -8 -8 -9 -9 -9 -9 -8 -8 -8 -8 -8 -8 -8 -8 -8
-6 -7 -7 -7 -7 -7 -7 -8 -8 -8 -8 -8 -8 -8 -8 -8 -9 -9 -9 -9 -8 -8 -8 -8 -8 -8 -8 -9 -9 -9 -9 -9 -9 -8 -8 -8 -8 -8 -8 -8 -8 -9
-7 -7 -7 -7 -7 -7 -7 -7 -8 -8 -8 -8 -8 -8 -8 -8 -9 -9 -9 -9 -8 -8 -8 -8 -8 -8 -8 -9 -9 -9 -9 -9 -9 -8 -8 -8 -8 -8 -8 -9 -9 -9
-7 -7 -7 -7 -7 -8 -7 -7 -7 -8 -8 -8 -8 -8 -8 -8 -9 -9 -9 -9 -8 -8 -8 -8 -8 -8 -8 -9 -9 -9 -9 -9 -9 -8 -8 -8 -8 -9 -9 -9 -9 -9
-7 -7 -7 -7 -7 -7 -7 -7 -7 -7 -7 -7 -7 -7 -7 -8 -8 -8 -8 -8 -8 -8 -8 -8 -8 -8 -9 -9 -9 -9 -9 -9 -9 -8 -8 -8 -9 -9 -9 -9 -9 -9
-8 -8 -8 -7 -7 -7 -7 -7 -7 -7 -7 -7 -7 -7 -7 -7 -8 -8 -8 -8 -8 -8 -8 -8 -8 -8 -9 -9 -9 -9 -9 -9 -9 -8 -8 -9 -9 -9 -9 -9 -9 -9
-8 -8 -8 -7 -7 -7 -7 -7 -7 -7 -7 -7 -7 -7 -7 -7 -7 -7 -7 -7 -8 -8 -8 -8 -8 -9 -9 -9 -9 -9 -9 -9 -9 -8 -8 -9 -9 -9 -9 -9 -9 -9
-7 -7 -8 -8 -7 -7 -7 -7 -7 -7 -7 -7 -7 -7 -7 -7 -7 -7 -7 -7 -8 -8 -8 -8 -9 -9 -9 -9 -9 -9 -9 -9 -9 -8 -8 -9 -9 -9 -9 -9 -9 -9
-7 -7 -7 -8 -8 -7 -7 -7 -7 -7 -7 -7 -7 -8 -7 -7 -7 -7 -7 -7 -8 -8 -8 -8 -9 -9 -9 -9 -9 -9 -9 -9 -9 -9 -9 -9 -9 -9 -9 -9 -9 -9
-7 -7 -7 -8 -8 -8 -7 -7 -7 -7 -7 -7 -7 -7 -7 -7 -8 -8 -8 -8 -8 -8 -8 -8 -9 -9 -9 -9 -9 -9 -9 -9 -9 -9 -9 -9 -9 -9 -9 -9 -9 -9
-7 -7 -7 -7 -8 -8 -7 -7 -7 -7 -7 -8 -7 -7 -7 -8 -8 -8 -8 -8 -8 -8 -8 -8 -9 -9 -9 -9 -9 -9 -9 -9 -9 -9 -9 -9 -9 -9 -9 -9 -9 -9
-7 -7 -7 -7 -8 -8 -8 -7 -7 -7 -8 -8 -8 -8 -8 -8 -8 -8 -8 -8 -8 -8 -8 -8 -9 -9 -9 -9 -9 -9 -9 -9 -9 -9 -9 -9 -9 -9 -9 -9 -9 -9
-7 -7 -8 -8 -8 -8 -8 -8 -8 -8 -8 -8 -8 -8 -8 -8 -8 -8 -8 -8 -8 -8 -8 -8 -9 -9 -9 -9 -9 -9 -9 -9 -9 -9 -9 -9 -9 -9 -9 -9 -9 -9
-7 -8 -8 -8 -8 -8 -8 -8 -8 -8 -8 -8 -8 -8 -8 -8 -8 -8 -8 -8 -8 -8 -8 -9 -9 -9 -9 -9 -9 -9 -9 -9 -9 -9 -9 -9 -9 -9 -9 -9 -9 -9
-8 -8 -8 -8 -8 -8 -8 -8 -8 -8 -8 -8 -8 -8 -8 -8 -8 -8 -8 -8 -8 -8 -8 -9 -9 -9 -9 -9 -9 -9 -9 -9 -9 -9 -9 -9 -9 -9 -9 -9 -9 -9
-8 -8 -8 -8 -8 -8 -8 -8 -8 -8 -8 -8 -8 -8 -8 -8 -8 -8 -8 -8 -8 -8 -8 -8 -8 -9 -9 -9 -9 -9 -9 -9 -9 -9 -9 -9 -9 -9 -9 -9 -9 -9
Height
5912 5913 5914 5914 5914 5915 5916 5917 5918 5918 5919 5920 5920 5920 5921 5921 5921 5920 5920 5921 5921 5921 5921 5921 5921 5921 5921 5920 5920 5920 5920 5920 5919 5919 5918 5918 5917 5915 5914 5912 5911 5910
5911 5912 5912 5912 5913 5914 5914 5915 5916 5917 5917 5918 5919 5919 5920 5920 5920 5919 5919 5919 5919 5920 5920 5920 5920 5920 5920 5920 5919 5919 5919 5919 5919 5918 5918 5917 5916 5915 5913 5912 5910 5909
5909 5910 5910 5911 5911 5911 5912 5913 5914 5915 5915 5916 5917 5918 5918 5918 5918 5918 5918 5918 5918 5918 5918 5918 5918 5918 5918 5918 5918 5918 5919 5919 5918 5918 5917 5916 5915 5914 5913 5911 5910 5908
5907 5908 5908 5908 5909 5909 5910 5911 5912 5913 5914 5914 5915 5916 5916 5917 5917 5917 5917 5917 5916 5916 5917 5917 5917 5917 5917 5917 5917 5917 5918 5918 5917 5917 5916 5915 5914 5913 5911 5910 5909 5907
5904 5905 5906 5906 5906 5907 5908 5909 5910 5911 5912 5912 5913 5914 5914 5915 5915 5915 5916 5915 5915 5915 5915 5915 5915 5916 5916 5916 5916 5916 5916 5916 5916 5916 5915 5914 5913 5912 5910 5909 5907 5906
5901 5902 5903 5903 5904 5904 5906 5907 5908 5909 5910 5910 5911 5911 5912 5912 5913 5913 5913 5913 5913 5914 5914 5914 5914 5914 5914 5914 5914 5915 5915 5915 5915 5914 5914 5913 5912 5911 5909 5908 5906 5905
5898 5898 5899 5900 5901 5902 5903 5905 5905 5906 5907 5908 5908 5909 5910 5910 5910 5911 5911 5911 5912 5912 5912 5912 5912 5912 5913 5913 5913 5913 5913 5913 5913 5912 5912 5911 5910 5909 5908 5907 5905 5903
5894 5895 5896 5897 5898 5899 5901 5902 5902 5903 5904 5905 5906 5907 5907 5907 5908 5908 5909 5909 5910 5910 5910 5910 5911 5911 5911 5911 5911 5911 5911 5911 5911 5910 5910 5909 5909 5907 5906 5905 5903 5902
5891 5891 5892 5894 5895 5896 5898 5899 5899 5900 5900 5902 5903 5903 5904 5905 5905 5906 5906 5907 5908 5908 5909 5909 5909 5909 5909 5909 5909 5909 5909 5909 5909 5908 5908 5907 5906 5905 5904 5903 5901 5900
5888 5889 5890 5891 5892 5894 5895 5895 5896 5896 5897 5898 5899 5900 5901 5902 5902 5903 5904 5905 5906 5906 5907 5907 5907 5907 5907 5907 5908 5907 5907 5907 5906 5906 5905 5905 5904 5903 5902 5900 5899 5897
5886 5887 5887 5889 5889 5890 5891 5892 5892 5892 5893 5894 5896 5896 5898 5898 5899 5900 5901 5903 5903 5904 5905 5905 5905 5906 5906 5906 5906 5905 5905 5905 5904 5904 5903 5902 5902 5901 5899 5898 5896 5895
5884 5885 5885 5886 5887 5887 5888 5889 5889 5890 5890 5891 5892 5893 5894 5895 5896 5897 5899 5900 5900 5901 5902 5903 5904 5904 5904 5904 5904 5903 5903 5903 5902 5902 5901 5900 5900 5898 5897 5896 5894 5892
5883 5883 5884 5884 5885 5885 5885 5886 5887 5887 5887 5888 5889 5890 5891 5892 5893 5894 5896 5897 5897 5898 5900 5901 5902 5902 5902 5902 5902 5901 5901 5901 5900 5900 5899 5898 5897 5896 5895 5893 5892 5890
5881 5881 5882 5882 5883 5883 5884 5884 5885 5885 5885 5886 5886 5887 5888 5889 5890 5891 5892 5893 5895 5896 5897 5899 5899 5900 5900 5900 5900 5899 5899 5899 5898 5897 5897 5896 5895 5893 5892 5891 5890 5888
5879 5879 5880 5880 5881 5882 5882 5882 5882 5883 5883 5883 5884 5886 5886 5887 5887 5888 5889 5890 5892 5893 5895 5896 5897 5897 5897 5897 5897 5897 5897 5896 5895 5895 5894 5893 5892 5891 5890 5888 5887 5886
5877 5877 5878 5879 5879 5880 5880 5881 5881 5881 5881 5882 5883 5884 5884 5885 5885 5885 5887 5888 5889 5891 5892 5893 5894 5894 5894 5894 5893 5893 5893 5893 5892 5892 5891 5890 5889 5888 5887 5886 5884 5883
5874 5875 5876 5877 5878 5878 5878 5879 5879 5879 5879 5880 5881 5881 5882 5882 5883 5884 5885 5885 5886 5887 5888 5890 5891 5891 5890 5890 5890 5890 5890 5889 5889 5889 5888 5887 5886 5885 5884 5882 5881 5880
5872 5873 5874 5875 5876 5876 5876 5876 5876 5877 5878 5878 5878 5879 5879 5880 5881 5882 5882 5883 5883 5884 5885 5886 5887 5887 5887 5887 5886 5887 5886 5886 5886 5886 5885 5884 5883 5882 5881 5880 5879 5877
5870 5871 5872 5873 5873 5874 5874 5874 5874 5875 5875 5876 5876 5876 5876 5877 5878 5879 5879 5880 5880 5881 5882 5883 5883 5883 5883 5883 5883 5883 5883 5883 5883 5883 5882 5881 5880 5879 5878 5877 5876 5874
5867 5868 5869 5870 5871 5871 5871 5871 5872 5873 5873 5873 5873 5873 5873 5874 5875 5875 5876 5877 5878 5878 5879 5879 5879 5880 5880 5880 5880 5880 5880 5879 5880 5880 5879 5878 5878 5877 5876 5875 5873 5872
5864 5865 5866 5867 5868 5868 5868 5868 5869 5870 5870 5870 5870 5871 5871 5871 5871 5872 5873 5873 5874 5875 5875 5876 5876 5876 5876 5877 5877 5877 5876 5876 5876 5877 5876 5875 5875 5874 5873 5872 5871 5869
5861 5862 5863 5864 5864 5864 5865 5865 5866 5867 5867 5867 5867 5868 5868 5868 5868 5868 5869 5870 5870 5871 5872 5872 5873 5873 5873 5873 5873 5873 5872 5872 5873 5873 5873 5872 5871 5871 5870 5869 5867 5866
5858 5859 5859 5860 5861 5861 5862 5862 5863 5863 5863 5864 5864 5865 5865 5865 5865 5865 5865 5866 5866 5867 5868 5869 5869 5869 5869 5870 5869 5869 5868 5868 5869 5869 5869 5869 5868 5867 5866 5865 5864 5862
5854 5855 5855 5855 5856 5857 5858 5859 5859 5859 5860 5860 5860 5861 5861 5862 5862 5861 5861 5861 5862 5863 5864 5865 5865 5865 5865 5866 5865 5864 5864 5864 5865 5865 5865 5865 5864 5863 5863 5862 5860 5858
5850 5850 5850 5851 5852 5853 5854 5854 5855 5855 5855 5855 5855 5856 5857 5858 5858 5857 5857 5857 5858 5858 5859 5860 5860 5860 5861 5861 5861 5860 5860 5860 5860 5861 5861 5861 5860 5860 5859 5857 5856 5854
5844 5845 5846 5847 5848 5848 5848 5849 5849 5850 5850 5850 5850 5851 5852 5853 5853 5853 5853 5853 5853 5854 5854 5854 5855 5856 5857 5857 5856 5855 5855 5855 5855 5856 5857 5857 5856 5856 5855 5853 5852 5850
Wind_Speed
14 13 12 14 15 14 13 13 13 13 13 12 11 12 12 12 11 10 10 10 9 8 7 5 4 4 4 5 5 6 8 8 10 12 15 17 18 19 20 20 20 20
15 15 15 15 15 15 14 14 14 14 14 14 13 13 13 13 13 12 12 11 10 9 8 7 6 5 5 5 6 7 8 9 11 13 15 17 18 18 18 19 19 19
17 17 16 17 17 17 17 17 17 16 16 16 15 15 15 15 15 14 13 13 12 11 10 8 7 6 5 5 6 8 8 10 12 13 14 16 17 17 17 17 17 17
19 19 18 19 20 20 20 19 19 18 17 17 16 17 17 17 17 16 15 15 14 13 11 10 8 7 5 6 7 8 9 10 11 12 13 15 16 16 16 16 16 16
22 21 21 21 22 22 22 20 20 19 18 18 18 18 18 18 19 18 17 16 16 15 13 12 10 8 6 7 8 9 9 10 10 11 12 14 16 16 15 16 16 15
24 23 23 23 24 24 23 22 22 21 20 20 20 19 19 20 20 20 19 18 17 17 15 14 11 9 7 8 9 9 10 10 10 11 12 14 16 16 16 17 17 17
24 24 25 25 25 25 24 24 24 23 22 22 22 21 20 20 21 21 20 19 18 18 17 15 13 10 8 9 9 10 10 10 10 11 13 15 17 18 18 18 19 19
23 24 25 25 25 25 24 25 25 25 24 24 23 22 22 22 21 21 20 20 19 19 18 17 14 11 10 10 10 10 10 10 10 12 14 16 18 19 20 21 21 21
19 21 22 24 25 25 25 26 26 27 27 25 25 24 24 23 22 21 20 20 20 20 19 18 16 13 11 11 11 11 11 11 12 14 16 17 19 21 22 23 23 23
15 17 19 20 22 24 25 27 28 29 29 27 27 27 26 24 22 22 21 20 20 20 20 20 18 15 13 12 12 11 11 12 13 15 17 19 20 22 24 25 25 24
12 13 15 17 20 22 24 27 29 30 30 29 29 29 28 25 23 22 21 20 21 21 22 21 19 16 14 14 13 12 12 13 15 17 18 20 21 23 24 25 25 24
10 10 12 14 17 19 22 25 27 30 31 31 31 30 28 25 24 23 21 21 22 23 23 22 19 17 16 16 14 13 13 14 16 18 19 20 21 22 23 23 23 22
10 9 9 12 14 17 19 21 23 26 28 29 29 28 26 25 25 24 22 22 24 24 24 22 19 17 17 17 16 15 14 15 17 18 18 19 19 20 20 20 20 20
11 11 11 11 14 16 17 18 19 21 24 26 26 25 24 26 26 25 24 24 25 25 25 23 20 18 18 18 18 17 16 17 18 19 18 17 17 18 18 18 18 20
13 14 14 13 14 16 17 18 19 19 21 23 23 23 24 26 27 28 27 26 26 26 25 22 20 19 19 20 20 19 19 19 20 19 17 16 16 17 17 18 19 21
16 16 16 16 15 16 17 19 20 20 21 21 22 22 23 25 28 29 28 27 26 26 25 22 20 20 21 21 22 21 21 22 22 20 17 16 16 17 18 19 21 22
18 18 18 18 17 17 18 19 21 22 22 22 22 22 23 25 27 28 28 27 27 27 25 23 21 22 22 23 23 23 23 24 23 20 18 17 17 17 19 21 23 24
19 20 21 20 19 19 19 20 21 22 22 23 24 24 24 25 26 26 27 28 27 27 26 24 23 23 23 24 24 24 25 26 24 21 18 17 17 18 20 22 24 25
19 20 21 22 22 22 22 23 23 22 21 22 24 25 26 26 26 26 27 28 28 28 27 25 25 25 25 25 25 26 26 26 25 22 19 18 18 19 21 22 25 27
20 19 20 21 23 24 25 25 24 23 22 23 23 24 25 26 27 28 28 28 29 29 28 28 27 26 26 26 26 26 26 26 25 22 19 19 19 20 21 22 24 27
21 20 20 22 24 27 28 28 27 25 23 23 24 24 25 25 27 28 29 29 30 30 29 29 29 28 27 27 26 27 28 27 25 22 20 19 20 21 23 23 24 26
22 21 22 23 26 28 29 30 30 29 27 26 25 25 25 26 27 28 29 30 31 32 31 30 30 29 28 28 27 28 29 28 24 22 20 20 21 22 24 24 25 26
24 23 24 25 26 28 30 31 31 31 31 29 28 27 27 27 27 28 29 31 32 33 32 31 31 31 29 29 29 29 30 28 25 22 21 21 23 24 25 25 26 28
28 27 27 28 27 28 30 32 33 33 33 33 32 31 29 28 28 29 30 32 33 34 34 33 33 33 31 31 31 31 30 28 26 24 23 23 24 26 26 27 28 30
31 30 30 29 29 30 31 33 34 35 36 37 36 35 32 30 30 31 31 32 33 35 36 35 35 35 33 33 34 34 32 31 29 26 24 25 27 28 28 28 29 31
33 32 32 32 31 32 34 36 36 36 37 39 39 38 36 34 33 32 32 33 34 36 38 38 38 37 36 35 37 37 36 34 32 29 26 28 29 29 29 30 31 32
Wind_Direction
233 233 233 236 239 240 238 237 238 240 244 250 257 266 273 276 275 263 249 245 247 247 249 258 272 295 319 329 325 317 314 322 329 331 335 340 344 345 343 342 341 340
236 234 234 237 240 241 240 239 238 241 247 252 260 270 275 275 275 270 256 246 244 243 242 249 262 279 300 312 309 308 313 321 328 332 337 342 345 345 343 342 341 340
238 238 238 239 240 239 239 239 240 242 248 256 264 271 274 272 273 274 263 249 244 243 241 244 254 267 283 293 294 300 308 318 326 332 337 342 344 343 342 341 342 341
239 240 240 242 243 242 241 242 244 245 248 254 260 265 270 273 274 274 268 254 245 243 243 242 247 256 266 275 282 292 304 314 323 330 336 341 340 339 339 340 342 343
238 238 239 241 243 245 245 245 246 246 247 250 255 261 268 273 274 272 269 259 246 243 243 242 244 246 251 264 274 286 300 310 319 326 332 336 336 335 336 336 337 338
240 239 239 240 242 245 247 248 247 246 246 249 254 259 264 269 272 272 269 263 250 243 242 242 241 239 242 255 269 283 297 305 313 320 325 329 330 332 335 335 334 332
240 238 237 239 241 244 247 249 250 250 249 250 254 259 262 267 271 270 267 264 252 243 243 243 240 236 240 251 266 280 291 297 304 312 317 321 323 327 331 334 335 333
239 237 236 237 239 242 245 248 251 252 251 251 254 257 259 263 267 266 263 263 255 245 245 246 242 236 239 249 263 275 283 288 296 304 309 313 317 321 326 330 332 333
241 239 237 238 239 241 244 247 250 251 251 251 252 253 256 259 263 261 259 261 255 246 245 248 245 241 242 248 259 270 276 281 289 297 302 306 312 318 321 325 328 329
244 243 241 241 241 242 244 245 248 250 251 251 250 252 255 257 258 255 255 259 255 247 246 248 246 244 246 251 259 267 271 278 286 292 297 302 309 316 320 324 328 327
251 250 247 244 244 244 244 244 246 248 250 250 250 253 255 255 252 249 251 256 253 247 245 246 245 247 251 255 261 266 269 275 282 287 292 301 309 317 322 327 329 329
261 258 252 247 245 245 244 245 246 249 250 251 252 253 254 250 244 243 246 250 249 245 244 245 245 248 254 259 263 266 268 272 277 282 289 299 310 319 325 330 333 333
275 273 261 250 246 246 248 248 249 250 252 253 253 252 250 244 239 240 242 245 245 243 243 244 244 246 254 260 264 265 267 269 273 278 287 299 311 320 326 330 333 333
279 281 278 266 255 252 255 257 258 258 257 257 256 253 247 241 238 239 240 241 241 241 242 243 242 245 252 259 263 265 265 267 271 277 287 300 311 319 326 332 335 334
274 277 282 281 273 266 264 264 266 267 265 264 263 259 252 244 242 242 242 241 241 240 241 242 241 243 251 257 261 265 266 268 272 279 289 300 308 316 326 335 339 340
267 273 279 283 285 281 274 270 270 270 270 271 270 266 261 256 251 248 248 247 243 242 243 243 241 243 250 257 261 265 268 271 275 282 290 297 303 313 324 331 336 339
263 269 274 279 285 286 284 279 275 273 272 273 273 271 269 266 261 258 257 253 247 244 245 243 241 242 248 255 260 265 269 273 277 283 289 294 302 314 322 327 331 334
262 264 269 275 281 284 286 285 283 281 280 278 276 274 272 270 269 266 263 257 251 248 247 245 243 243 247 253 259 264 269 273 276 281 286 293 304 315 320 323 326 329
259 260 264 270 277 282 282 283 286 289 290 287 281 278 276 276 274 270 265 261 256 253 250 246 244 244 246 251 257 262 265 269 273 278 284 294 304 313 317 320 323 325
256 257 261 266 273 278 279 280 283 287 291 291 289 287 286 282 277 272 269 264 260 256 251 246 245 245 246 250 255 258 260 263 269 275 283 294 304 309 313 316 321 323
253 257 261 263 267 273 276 277 279 281 285 288 291 293 293 286 277 272 270 265 261 257 252 248 247 247 247 248 252 255 258 260 266 273 283 294 302 306 309 313 319 322
251 256 259 261 264 268 273 276 276 278 280 283 286 290 291 289 282 276 273 268 263 259 256 251 249 249 248 248 251 255 258 260 264 272 282 292 299 303 306 311 316 318
249 253 257 260 262 266 271 274 274 274 276 278 281 283 286 288 285 278 273 269 264 261 259 255 252 251 249 248 250 255 258 260 265 272 281 289 295 299 302 306 311 314
249 253 256 258 261 265 267 268 268 269 272 274 276 277 280 283 282 277 272 269 266 262 259 255 253 252 250 248 251 256 259 261 265 272 279 286 290 295 298 302 307 310
249 253 256 259 262 264 264 261 260 261 263 266 268 271 273 276 277 276 274 271 268 263 258 255 254 254 252 249 251 256 259 262 265 270 276 281 286 290 294 298 302 306
247 250 254 257 259 261 261 259 257 255 256 258 260 263 266 269 271 273 273 271 268 263 259 258 258 256 253 250 252 256 259 261 264 268 273 277 281 285 289 293 298 302